Home > Weather > Pasco > Past weeks

Flag for USA Past Weather in Pasco, Washington, USA — Yesterday and Last 2 Weeks

Now
50 °F

Clear.


Feels Like: 47 °F
Forecast: 47 / 76 °F
Wind: 8 mph from Southwest

Location: Tri-Cities Airport

Current Time: May 28, 2016 at 4:59:32 AM

Latest Report: May 28, 2016 at 3:53 AM


Visibility: 10 mi

Pressure: 30.06 "Hg

Humidity: 68%

Dew Point: 40 °F

Location of PascoLocation

Past Weather in Pasco — Graph

°F

Pasco Temperature Yesterday

Maximum temperature yesterday: 71 °F (at 5:53 PM)
Minimum temperature yesterday: 50 °F (at 4:53 AM)
Average temperature yesterday: 60 °F

High & Low Weather Summary for the Past Weeks

 TemperatureHumidityPressure
High86 °F (May 13, 4:53 PM)93% (May 15, 8:53 PM)30.20 "Hg (May 15, 8:53 PM)
Low43 °F (May 20, 5:53 AM)19% (May 27, 5:53 PM)29.62 "Hg (May 20, 6:53 PM)
Average63 °F56%29.90 "Hg
* Reported May 13 2:53 AM — May 28 2:53 AM, Pasco, Weather by CustomWeather, © 2016

Note: Actual official high and low records may vary slightly from our data, if they occured in-between our weather recording intervals... More about our weather records

Advertising

Pasco Weather History for the Previous 24 Hours

Scroll right to see more
 ConditionsComfort  
Time TempWeatherWind HumidityBarometerVisibility
2:53 AM
Sat, May 28
50 °FPassing clouds.6 mph66%30.06 "Hg10 mi
1:53 AM53 °FPassing clouds.6 mph56%30.05 "Hg10 mi
12:53 AM55 °FClear.7 mph51%30.06 "Hg10 mi
11:53 PM
Fri, May 27
52 °FClear.6 mph55%30.05 "Hg10 mi
10:53 PM55 °FClear.No wind47%30.03 "Hg10 mi
9:53 PM53 °FClear.6 mph56%30.03 "Hg10 mi
8:53 PM57 °FPassing clouds.9 mph46%30.00 "Hg10 mi
7:53 PM64 °FScattered clouds.7 mph34%29.98 "Hg10 mi
6:53 PM69 °FSunny.12 mph21%29.97 "Hg10 mi
5:53 PM71 °FSunny.7 mph19%29.97 "Hg10 mi
4:53 PM70 °FSunny.13 mph27%29.98 "Hg10 mi
3:53 PM69 °FSunny.3 mph22%30.00 "Hg10 mi
2:53 PM69 °FSunny.10 mph24%30.01 "Hg10 mi
1:53 PM69 °FScattered clouds.16 mph22%30.02 "Hg10 mi
12:53 PM67 °FSunny.8 mph26%30.03 "Hg10 mi
11:53 AM65 °FSunny.6 mph28%30.05 "Hg10 mi
10:53 AM62 °FSunny.6 mph32%30.06 "Hg10 mi
9:53 AM61 °FSunny.N/A35%30.08 "Hg10 mi
8:53 AM57 °FSunny.5 mph46%30.08 "Hg10 mi
7:53 AM54 °FSunny.5 mph53%30.08 "Hg10 mi
6:53 AM52 °FSunny.8 mph59%30.07 "Hg10 mi
5:53 AM50 °FClear.No wind66%30.06 "Hg10 mi
4:53 AM50 °FClear.12 mph63%30.03 "Hg10 mi
Weather by CustomWeather, © 2016

See weather overviewHow to use our weather pages